Change the Weather History Date:

Friday, April 5, 2013

  Actual Average Record
Temperature  
Mean Temperature 38 °F 42 °F  
Max Temperature 50 °F 53 °F 80 °F (1873)
Min Temperature 26 °F 32 °F 14 °F (1995)
Degree Days  
Heating Degree Days 27 23  
Month to date heating degree days 146 118  
Since 1 July heating degree days 6486 6567  
Cooling Degree Days 0 0  
Month to date cooling degree days 0 0  
Year to date cooling degree days 0 0  
Moisture  
Dew Point 24 °F    
Average Humidity 59    
Maximum Humidity 84    
Minimum Humidity 34    
Precipitation  
Precipitation 0.00 in 0.11 in 1.48 in (1958)
Month to date precipitation 0.00 0.52  
Year to date precipitation 7.69 5.40  
Snow  
Snow 0.00 in 0.10 in 8.00 in (1982)
Month to date snowfall 0.0 0.7  
Since 1 July snowfall 70.3 48.8  
Snow Depth 0.00 in    
Sea Level Pressure  
Sea Level Pressure 30.18 in    
Wind  
Wind Speed 8 mph (NE)    
Max Wind Speed 21 mph    
Max Gust Speed 25 mph    
Visibility 10 miles    
Events      
T = Trace of Precipitation, MM = Missing Value Source: NWS Daily Summary

Daily Weather History Graph

Daily Weather History Graph

Search for Another Location

Airport or City:

Trip Planner

Search our weather history database for the weather conditions in past years. The results will help you decide how hot, cold, wet, or windy it might be!

Date:

Astronomy

Apr. 05, 2013 Rise Set
Actual Time 6:31 AM CDT 7:28 PM CDT
Civil Twilight 6:02 AM CDT 7:57 PM CDT
Nautical Twilight 5:28 AM CDT 8:32 PM CDT
Astronomical Twilight 4:52 AM CDT 9:08 PM CDT
Moon 3:46 AM CDT (4/5) 2:45 PM CDT (4/5)
Length of Visible Light 13h 54m
Length of Day
12h 56m
Waning Crescent, 23% of the Moon is Illuminated
Apr 5
Waning Crescent
Apr 10
New
Apr 18
First Quarter
Apr 25
Full
May 2
Last Quarter

Hourly Weather History & Observations

Time (CDT) Temp. Windchill Dew Point Humidity Pressure Visibility Wind Dir Wind Speed Gust Speed Precip Events Conditions
12:53 AM 37.9 °F 34.4 °F 27.0 °F 65% 30.09 in 10.0 mi NW 4.6 mph - N/A   Clear
1:53 AM 37.0 °F 31.0 °F 26.1 °F 65% 30.10 in 10.0 mi NNW 8.1 mph - N/A   Clear
2:53 AM 34.0 °F 27.2 °F 25.0 °F 70% 30.12 in 10.0 mi North 8.1 mph - N/A   Clear
3:53 AM 33.1 °F 26.9 °F 24.1 °F 70% 30.14 in 10.0 mi North 6.9 mph - N/A   Clear
4:53 AM 30.9 °F - 23.0 °F 72% 30.16 in 10.0 mi Calm Calm - N/A   Clear
5:53 AM 28.9 °F 25.2 °F 21.9 °F 75% 30.18 in 10.0 mi North 3.5 mph - N/A   Clear
6:53 AM 27.0 °F 23.0 °F 23.0 °F 85% 30.21 in 10.0 mi NNW 3.5 mph - N/A   Clear
7:53 AM 34.0 °F 28.0 °F 24.1 °F 67% 30.24 in 10.0 mi North 6.9 mph - N/A   Clear
8:53 AM 37.0 °F 28.9 °F 23.0 °F 57% 30.25 in 10.0 mi NE 12.7 mph - N/A   Clear
9:53 AM 39.0 °F 33.4 °F 24.1 °F 55% 30.26 in 10.0 mi ENE 8.1 mph - N/A   Clear
10:53 AM 41.0 °F 36.4 °F 21.9 °F 47% 30.27 in 10.0 mi ENE 6.9 mph - N/A   Partly Cloudy
11:53 AM 42.1 °F 37.1 °F 21.9 °F 45% 30.26 in 10.0 mi East 8.1 mph - N/A   Partly Cloudy
12:53 PM 44.1 °F 40.8 °F 21.9 °F 42% 30.23 in 10.0 mi Variable 5.8 mph - N/A   Clear
1:53 PM 46.9 °F - 21.9 °F 37% 30.21 in 10.0 mi Variable 3.5 mph - N/A   Clear
2:53 PM 46.0 °F 43.9 °F 23.0 °F 40% 30.19 in 10.0 mi South 4.6 mph - N/A   Partly Cloudy
3:53 PM 48.9 °F - 21.9 °F 35% 30.17 in 10.0 mi ESE 3.5 mph - N/A   Clear
4:53 PM 48.0 °F - 21.9 °F 36% 30.18 in 10.0 mi Calm Calm - N/A   Clear
5:53 PM 46.0 °F 43.9 °F 23.0 °F 40% 30.17 in 10.0 mi NE 4.6 mph - N/A   Mostly Cloudy
6:53 PM 45.0 °F 40.6 °F 25.0 °F 46% 30.17 in 10.0 mi ENE 8.1 mph - N/A   Mostly Cloudy
7:53 PM 44.1 °F 38.1 °F 26.1 °F 49% 30.14 in 10.0 mi East 11.5 mph - N/A   Overcast
8:53 PM 39.9 °F 30.8 °F 27.0 °F 60% 30.16 in 10.0 mi ESE 18.4 mph - N/A   Mostly Cloudy
9:53 PM 37.9 °F 30.0 °F 25.0 °F 60% 30.17 in 10.0 mi ESE 12.7 mph - N/A   Overcast
10:53 PM 36.0 °F 27.1 °F 25.0 °F 64% 30.16 in 10.0 mi ESE 13.8 mph - N/A   Overcast
11:53 PM 36.0 °F 27.1 °F 24.1 °F 62% 30.15 in 10.0 mi ESE 13.8 mph - N/A   Overcast